Wind_Speed
16 13 18 22 21 22 15 14 15 12 2 7 13 17 16 16 11 12 11 11 12 11 7 8 8 7 6 6 8 10 11 10 15 20 13 19 23 33 28 35 38 41 36 33
9 20 20 19 22 22 21 19 17 16 13 11 17 18 14 16 15 10 10 12 12 11 11 10 10 10 9 9 9 10 12 12 15 19 18 18 20 23 28 31 29 28 32 31
18 9 12 20 22 19 21 22 18 19 14 13 19 20 20 17 11 9 9 10 10 12 13 13 13 14 12 11 11 12 12 17 18 22 23 24 22 20 21 25 27 26 28 26
13 18 14 16 21 21 21 18 20 17 15 11 3 12 14 11 16 17 15 11 12 12 13 13 14 16 16 14 12 12 13 16 18 24 23 29 21 25 18 24 28 30 29 29
9 10 16 19 19 17 17 15 17 16 16 16 19 10 11 10 12 12 13 12 12 12 14 15 15 18 18 16 15 13 14 17 19 20 21 23 19 22 20 22 23 28 32 32
18 12 8 14 14 16 7 13 10 8 9 13 17 13 10 13 11 6 4 2 10 13 15 15 16 18 19 19 17 17 17 18 19 21 21 23 22 23 20 23 22 25 30 29
16 22 15 13 7 10 14 9 6 8 7 8 7 12 16 7 10 11 11 8 8 12 15 16 17 16 20 21 20 18 19 20 20 21 22 25 22 23 23 23 23 25 23 29
5 5 23 18 20 10 20 17 7 9 10 7 9 8 11 9 11 10 7 5 7 12 15 18 18 17 22 23 22 21 21 21 22 22 22 24 25 22 24 25 25 23 23 23
4 5 2 17 19 18 13 16 19 18 14 7 7 7 8 9 10 10 11 4 9 12 15 19 19 20 22 24 24 24 24 23 24 26 25 24 24 25 26 24 24 23 22 21
5 6 2 2 9 18 19 4 8 11 9 15 12 13 7 9 11 9 8 11 6 11 15 17 18 21 22 24 24 24 25 26 26 28 29 29 28 27 27 28 28 26 24 23
6 3 3 6 7 8 13 16 13 9 12 11 11 9 9 13 11 9 8 6 4 9 14 16 17 22 23 23 25 26 27 27 28 29 29 29 30 31 31 30 29 29 26 26
5 4 6 10 10 9 9 8 18 13 17 10 13 13 1 12 9 6 10 5 1 5 11 13 15 19 24 25 27 28 28 29 28 28 29 30 29 30 32 33 32 30 31 29
7 4 5 5 5 2 4 2 1 6 8 19 14 3 3 8 11 11 9 6 2 4 8 11 14 16 19 25 26 28 29 30 28 28 29 29 30 31 30 30 30 28 26 27
6 7 9 10 7 6 6 5 9 4 5 12 16 17 18 18 15 13 15 11 10 5 8 10 12 15 18 24 26 28 28 29 29 30 30 30 30 29 27 27 27 27 27 26
6 12 12 14 19 18 17 18 17 16 14 14 15 19 13 14 19 18 15 12 8 9 8 10 12 14 15 20 23 25 25 27 28 29 28 27 25 24 24 24 24 24 25 27
1 7 6 14 16 18 20 21 21 21 19 21 22 27 20 20 18 21 19 20 18 12 12 10 12 13 14 18 20 22 22 23 24 25 24 22 22 22 22 22 22 23 25 24
4 4 6 11 5 12 15 22 22 22 20 17 19 20 18 20 22 21 16 15 15 14 13 11 11 11 11 16 17 19 20 20 21 20 19 18 19 19 19 19 20 21 20 19
9 8 4 6 9 9 7 3 14 18 15 10 14 18 21 17 19 20 17 13 10 10 11 12 10 6 11 12 16 16 17 19 19 17 15 14 13 13 12 13 12 11 9 8
19 14 4 4 9 16 18 8 10 12 10 5 11 11 14 20 18 20 15 11 8 6 6 5 5 5 13 13 14 14 15 14 14 14 12 10 9 10 11 11 11 12 14 15
17 16 10 8 7 5 4 12 5 8 13 8 10 13 14 13 14 14 8 3 6 7 5 4 8 12 14 16 19 25 20 21 21 21 21 22 21 22 22 19 19 20 22 24
5 7 16 13 11 8 15 13 11 8 6 16 17 17 17 13 13 1 6 6 7 13 13 13 15 17 19 21 26 25 25 24 25 30 32 31 30 29 27 26 25 26 27 28
7 6 5 6 7 13 6 5 6 11 18 18 16 18 19 15 3 5 8 9 10 12 17 17 18 19 22 24 26 27 25 24 29 29 33 33 32 29 29 30 27 26 28 30
11 10 4 7 5 11 10 4 14 17 18 18 8 21 17 6 4 7 8 10 11 13 18 20 22 23 24 24 26 26 24 29 31 34 30 32 33 32 28 28 25 24 23 22
10 7 6 5 7 13 1 13 17 14 16 14 15 17 8 6 7 8 6 9 13 13 16 20 25 22 23 25 25 27 25 29 32 33 28 28 30 31 29 28 26 25 20 19
9 4 7 9 11 11 11 10 13 16 13 10 12 12 5 9 12 12 7 6 11 16 16 21 21 23 25 22 23 24 25 30 36 31 29 28 29 32 34 33 27 28 26 18
11 13 10 11 12 12 12 14 15 17 14 12 9 1 6 6 10 14 13 10 9 16 21 21 24 25 24 26 25 24 24 29 33 30 24 23 24 25 26 29 35 34 32 31
Wind_Direction
203 213 216 219 225 243 271 262 252 260 285 258 254 269 269 272 268 266 253 241 238 229 203 195 190 185 176 188 184 184 177 167 147 132 101 118 124 142 141 149 164 175 175 177
196 234 238 230 235 240 246 249 252 261 265 272 270 274 271 271 269 271 262 237 237 215 189 192 189 185 189 194 189 178 177 175 166 140 135 121 126 136 144 163 172 179 173 175
220 237 233 231 234 235 239 244 251 254 263 260 270 273 263 253 242 232 247 257 235 222 192 189 181 189 193 194 196 186 175 185 181 162 148 143 143 147 162 176 185 182 182 179
246 254 240 228 233 226 245 232 250 263 257 261 161 278 286 248 262 259 254 229 236 218 197 185 183 183 191 198 194 187 173 176 179 176 165 164 161 162 174 174 181 187 195 198
216 214 215 230 230 222 246 262 252 252 256 257 252 255 268 248 256 252 250 237 224 212 199 184 192 176 185 191 192 186 177 174 177 179 169 161 163 170 168 172 174 185 199 206
254 244 255 249 247 231 223 235 235 237 248 244 242 239 255 244 244 248 224 259 202 205 199 182 186 172 175 185 187 183 181 180 181 181 181 179 178 169 174 174 176 184 182 185
234 244 238 221 219 217 227 208 212 222 213 244 189 215 241 232 257 262 284 263 202 201 195 187 184 179 175 182 189 187 184 181 186 188 188 183 180 179 179 188 183 183 185 187
231 214 223 218 219 202 201 212 221 226 235 241 176 223 233 242 259 250 257 254 196 197 196 197 187 187 179 183 189 192 191 190 189 188 188 193 195 187 186 191 193 190 188 195
324 246 53 235 223 226 196 217 235 262 264 269 235 215 273 240 240 238 254 240 223 207 196 198 189 194 183 184 188 194 194 196 197 198 197 198 202 201 200 202 202 200 204 208
12 283 359 249 227 228 244 216 193 223 243 243 237 240 248 210 234 239 230 247 226 203 195 196 192 191 193 184 187 196 200 197 198 199 199 201 205 208 212 211 211 212 214 218
332 275 270 299 212 201 206 234 242 274 233 255 262 258 182 240 254 276 313 258 249 209 195 193 194 187 195 187 185 192 203 201 199 199 202 204 205 210 213 215 216 217 218 219
11 281 275 275 285 306 307 263 226 235 237 230 254 258 209 229 264 270 312 282 276 205 188 186 193 188 191 196 187 191 199 204 205 203 202 206 208 209 212 215 219 220 223 228
7 196 258 229 221 115 225 147 243 299 267 254 253 218 91 292 284 275 288 305 178 182 183 183 185 192 195 199 196 193 197 204 205 205 204 205 207 210 213 216 218 221 224 228
271 248 259 271 334 331 274 264 277 272 249 261 252 262 265 274 278 272 283 269 283 180 187 194 194 196 198 200 202 200 198 203 205 206 205 205 207 210 212 215 217 218 222 226
248 248 246 257 275 285 279 277 275 264 257 258 271 273 269 248 263 277 281 279 295 257 190 201 209 206 198 199 200 204 200 201 204 208 210 211 209 210 213 215 218 221 224 226
47 251 285 262 255 257 263 266 261 257 263 268 264 259 260 270 266 265 261 265 269 263 261 213 203 220 209 200 200 200 193 198 201 206 210 212 213 213 215 217 219 222 226 231
273 247 237 251 255 269 251 247 250 259 248 269 271 269 257 248 241 248 249 249 254 256 261 258 216 210 216 203 198 200 190 185 191 198 202 206 211 213 214 217 219 224 227 231
236 210 245 278 290 235 261 312 240 247 257 283 296 278 251 256 241 234 254 252 252 265 275 268 272 203 192 194 186 187 181 177 178 183 187 190 196 205 211 214 218 218 202 176
216 228 244 250 252 274 296 274 228 242 277 332 333 325 258 248 259 259 256 267 285 316 304 299 290 169 138 148 150 154 153 155 145 131 137 143 146 137 137 126 122 119 118 104
213 214 232 226 254 259 226 15 350 311 275 7 359 340 337 313 254 252 248 136 109 89 66 90 119 119 123 125 131 120 118 109 99 104 104 109 115 111 107 110 108 107 106 97
163 193 220 229 245 257 280 329 322 240 333 351 330 333 314 323 291 3 101 77 84 98 98 102 103 101 106 110 109 101 99 94 99 100 98 95 97 99 101 102 100 101 98 95
176 192 183 220 240 244 360 43 334 323 317 312 329 312 304 325 326 85 98 99 105 98 91 92 93 90 101 105 105 98 91 99 97 93 89 88 90 90 92 94 91 92 95 91
241 227 248 210 212 281 310 331 298 295 292 304 283 281 284 333 119 98 107 99 92 88 89 87 83 78 76 90 97 95 99 95 92 88 84 84 82 79 79 82 84 84 86 86
262 241 237 215 233 243 201 277 260 287 321 306 273 270 259 122 114 110 122 124 109 93 94 99 91 85 78 80 86 95 99 100 94 90 88 86 85 82 75 73 72 73 72 79
276 253 257 269 280 281 271 236 311 325 328 339 330 261 202 147 148 132 118 114 112 105 96 96 96 94 90 95 94 99 104 103 94 93 92 89 86 85 79 71 68 70 67 75
256 257 267 274 287 295 293 305 307 312 324 343 341 212 125 142 139 129 124 102 98 101 109 96 97 101 103 100 97 100 103 102 103 93 91 95 96 92 91 88 78 73 77 75
Height
755 755 747 740 740 735 731 738 735 725 724 734 727 721 712 702 700 704 704 705 707 712 718 726 732 734 737 743 745 746 747 747 748 745 746 745 746 755 763 771 780 790 799 806
754 749 734 734 734 737 739 743 737 726 722 731 726 719 708 701 696 695 696 699 700 706 715 723 728 732 735 741 744 745 746 748 749 749 750 751 753 758 766 775 784 791 799 803
746 729 728 732 736 743 738 738 737 734 724 722 725 721 707 696 694 693 696 695 694 699 707 717 725 730 733 738 742 744 745 747 750 751 753 757 762 767 774 779 786 792 796 802
737 726 729 732 735 734 739 728 732 733 734 734 720 726 705 693 693 686 683 689 693 695 702 709 718 724 730 735 739 742 744 747 750 751 754 758 762 768 775 780 786 790 796 801
729 726 727 730 725 726 732 726 726 730 728 726 722 729 706 690 697 685 678 676 685 691 697 703 713 718 726 732 736 740 743 746 749 753 756 759 765 771 774 780 786 791 795 800
736 724 727 724 718 721 721 727 726 724 724 733 723 720 699 688 685 679 674 677 682 688 694 698 709 713 720 729 733 737 740 745 748 752 756 760 763 768 773 778 784 789 793 798
732 731 720 721 727 721 728 728 734 736 734 727 701 717 697 680 676 675 675 671 679 684 690 695 702 708 714 723 729 735 738 741 746 750 754 759 764 768 772 778 782 786 791 794
723 727 717 711 713 717 724 722 726 731 717 707 703 709 689 672 666 665 670 670 673 680 686 690 694 703 708 718 726 731 735 740 743 748 752 757 763 767 771 776 780 784 788 793
730 719 708 707 706 709 714 724 713 720 710 721 696 690 681 671 671 668 667 666 669 674 679 684 689 699 703 712 721 728 732 736 740 744 750 754 759 764 768 773 777 780 784 789
739 734 711 708 705 705 703 699 724 717 727 720 697 691 688 677 673 662 663 662 661 666 672 678 684 692 701 706 714 724 729 732 738 742 746 751 755 760 765 769 772 775 780 785
739 739 719 713 706 702 711 711 708 701 701 708 705 687 668 672 667 664 659 656 658 662 667 673 679 686 697 702 707 718 725 729 732 736 741 746 750 755 759 762 766 771 776 780
746 739 734 721 705 706 708 701 700 707 706 699 699 691 665 665 663 660 660 657 658 659 663 668 676 682 690 698 700 708 718 723 727 731 734 739 745 749 752 756 761 766 769 773
752 740 732 717 709 710 711 707 710 708 704 701 705 693 664 667 669 666 662 654 656 660 661 666 672 677 682 690 695 698 707 715 721 726 729 733 738 742 746 751 757 761 765 769
757 744 736 720 716 716 719 715 711 715 717 700 692 691 680 673 667 663 658 654 652 657 660 663 668 671 677 682 687 692 698 707 713 719 722 726 731 736 741 746 751 754 759 762
744 741 734 731 726 720 718 714 709 709 706 710 700 692 681 677 670 661 654 651 654 654 656 659 662 664 668 675 680 686 690 698 704 711 716 720 725 730 734 739 743 748 751 755
752 739 738 732 723 720 717 707 699 697 696 691 689 686 681 673 665 660 655 652 651 653 649 649 654 660 663 667 673 679 683 690 698 705 711 716 720 724 728 733 737 741 744 747
751 742 738 725 715 716 715 699 694 684 679 683 685 672 663 663 660 654 650 648 646 646 646 645 648 654 660 665 671 676 680 686 694 700 705 710 716 720 723 727 731 735 738 741
749 748 751 734 726 718 687 678 676 677 677 673 671 664 658 650 645 641 638 642 644 644 644 644 645 653 658 662 666 673 678 684 690 696 701 706 711 717 721 725 729 732 734 737
737 738 742 734 715 698 688 678 682 681 674 669 669 656 649 644 641 638 637 642 645 650 647 647 650 656 658 662 667 674 679 684 690 696 702 707 712 716 720 724 729 733 735 738
724 737 734 727 725 711 681 677 680 678 679 671 673 670 663 656 651 640 633 648 651 653 653 656 658 660 665 667 672 673 685 688 694 699 704 708 712 718 722 728 731 735 737 741
732 738 736 728 726 703 686 683 682 688 682 677 677 673 667 659 646 638 652 659 658 654 660 665 667 668 670 673 676 682 688 693 698 702 705 711 716 721 727 731 735 738 742 747
715 723 728 731 725 715 691 697 706 701 689 680 679 674 668 658 652 655 663 664 667 665 663 670 671 673 675 678 684 690 695 701 703 709 710 715 720 726 731 734 740 744 747 750
703 698 696 704 702 690 691 699 700 699 688 676 679 675 667 661 660 669 671 671 671 671 669 679 676 680 683 687 690 695 702 703 707 710 719 722 727 731 738 741 746 750 754 758
691 692 695 696 686 691 696 705 697 693 680 674 667 666 666 666 670 675 679 677 675 679 680 683 681 691 692 696 701 703 708 709 712 718 729 732 736 741 747 751 754 757 763 766
690 688 689 687 684 685 684 684 683 678 676 675 669 662 662 667 672 677 683 686 683 680 691 688 693 693 699 710 712 713 717 717 715 729 736 742 747 749 754 760 765 768 771 773
689 686 686 683 681 682 683 682 680 676 672 674 671 663 669 675 679 681 688 692 694 687 693 695 698 704 710 714 718 722 724 721 724 733 745 751 755 758 764 768 774 780 781 781